Home > Time Zones > World Clock > Weather > Palau > Koror > Past weeks

Flag for Palau Weather past 2 weeks in Koror, Palau

Now
79 °F

Overcast.


Feels Like: 83 °F
Forecast: 80 / 86 °F
Wind: 3 mph from West

Location: Koror / Palau Island

Current Time: Sep 21, 2014 at 11:24:15 PM

Latest Report: Sep 21, 2014 at 10:50 PM


Visibility: 14 mi

Pressure: 29.85 "Hg

Humidity: 94%

Dew point: 77 °F

Location of KororLocation

Historic Weather in Koror — Graph

°F

Koror temperature yesterday

Maximum temperature yesterday: 84 °F (at 1:50 PM)
Minimum temperature yesterday: 75 °F (at 12:50 AM)
Average temperature yesterday: 79 °F

Past Weeks' High & Low Weather Summary

 TemperatureHumidityPressure
High90 °F (Sep 13, 12:50 PM)100% (Sep 7, 7:53 PM)29.95 "Hg (Sep 7, 7:53 PM)
Low73 °F (Sep 7, 1:51 AM)66% (Sep 15, 11:50 AM)27.24 "Hg (Sep 18, 2:50 AM)
Average81 °F88%29.82 "Hg
* Reported Sep 6 9:55 PM — Sep 21 9:53 PM, Koror, Weather by CustomWeather, © 2014

Note: Actual official high and low records may vary slightly from our data, if they occured in-between our weather recording intervals... More about our weather records

Advertising

Koror weather history for previous 24 hours

 ConditionsComfort  
Time TempWeatherWind HumidityBarometerVisibility
9:53 PM
Sep 21
79 °FOvercast.3 mph94%29.85 "Hg14 mi
8:51 PM79 °FOvercast.5 mph94%29.84 "Hg14 mi
7:51 PM77 °FOvercast.5 mph94%29.83 "Hg14 mi
6:50 PM77 °FOvercast.No wind94%29.81 "Hg14 mi
5:50 PM79 °FCloudy.No wind89%29.77 "Hg14 mi
4:52 PM81 °FMostly cloudy.No wind79%29.78 "Hg14 mi
3:50 PM81 °FMostly cloudy.6 mph79%29.75 "Hg14 mi
2:53 PM77 °FMostly cloudy.9 mph89%29.79 "Hg14 mi
1:52 PM75 °FMostly cloudy.13 mph94%29.84 "Hg14 mi
12:50 PM73 °FSprinkles. Mostly cloudy.14 mph94%29.88 "Hg8 mi
11:52 AM77 °FLots of rain. Mostly cloudy.22 mph94%29.90 "Hg3 mi
10:54 AM81 °FSprinkles. Mostly cloudy.6 mph89%29.88 "Hg10 mi
9:55 AM81 °FMostly cloudy.8 mph89%29.89 "Hg14 mi
8:52 AM79 °FMostly cloudy.5 mph94%29.87 "Hg14 mi
7:54 AM77 °FScattered showers. Mostly cloudy.6 mph94%29.84 "Hg13 mi
6:53 AM79 °FSprinkles. Mostly cloudy.7 mph89%29.83 "Hg12 mi
5:55 AM79 °FMostly cloudy.No wind94%29.81 "Hg15 mi
4:55 AM81 °FPartly cloudy.5 mph89%29.80 "Hg15 mi
3:50 AM79 °FPassing clouds.No wind89%29.79 "Hg15 mi
2:54 AM77 °FPassing clouds.3 mph94%29.79 "Hg15 mi
Weather by CustomWeather, © 2014

See weather overviewHow to use our weather pages